{"data":{"norad_id":63914,"intl_designator":"2025-095AA","name":"STARLINK-34068","alt_names":[],"object_type":"PAYLOAD","status":"ACTIVE","operator":null,"country":"US","launch_date":"2025-05-10","launch_site_code":"AFETR","launch_vehicle":null,"mission":null,"orbit_class":"UNKNOWN","rcs_meters":null,"size_class":null,"mass_kg":null,"dimensions":null,"purposes":["comms"],"wikipedia_slug":null,"has_3d_model":false,"image_url":null,"decayed_at":null,"tle_current":{"epoch":"2026-05-25T03:39:43.458048Z","epoch_age_seconds":52085,"freshness":"FRESH","line1":"1 63914U 25095AA  26145.15258632  .00010889  00000+0  40481-3 0  9999","line2":"2 63914  43.0006 104.2282 0001143 240.0958 119.9780 15.27566249 59471","mean_motion":15.27566249,"eccentricity":0.0001143,"inclination_deg":43.0006,"raan_deg":104.2282,"arg_perigee_deg":240.0958,"mean_anomaly_deg":119.978,"bstar":0.00040481,"rev_number":5947,"period_min":94.267597293582,"perigee_km":482.30603351226,"apogee_km":483.87451006659,"semimajor_km":6861.2272717894,"source":"CELESTRAK","updated_at":"2026-05-25T13:38:20.180530Z"}}}